Daily Bio-Meteorological Summary

Last 30 Days

Daily Data | America/Los_Angeles
as of 10/21/20 8:34 AM PDT
Date Daily Max Temp (°F) Daily Min Temp (°F) Daily Rain (In) GDDs (DL) GDDs (Mx/Mn) Seas GDDs (DL) Seas GDDs (Smpl) Chilling <=45F (hrs) Chill Hrs 32-45F (hrs) Utah Chilling (Units) Chill Portions Hrs 70-85F (hrs) Hrs > 95F (hrs) Powdery Mildew Stress (pts) Bee Hrs Today (Hrs) Hrs <= 32F (hrs) Hrs <= 28F (hrs)
10/20/20 89.4 50.8 0.00 17.4 20.1 5,018 5,198 0.0 0.0 0.0 0 2.78 0.00 0 9.7 0.0 0.0
10/19/20 93.3 51.6 0.00 18.5 22.4 5,000 5,178 0.0 0.0 0.0 0 2.14 0.00 0 9.8 0.0 0.0
10/18/20 96.3 53.1 0.00 20.7 24.7 4,982 5,155 0.0 0.0 0.0 0 1.94 0.28 10 10.1 0.0 0.0
10/17/20 95.6 51.4 0.00 20.1 23.5 4,961 5,130 0.0 0.0 0.0 0 1.86 0.08 20 9.9 0.0 0.0
10/16/20 94.5 52.5 0.00 19.4 23.5 4,941 5,107 0.0 0.0 0.0 0 2.41 0.00 30 9.9 0.0 0.0
10/15/20 92.1 53.8 0.00 19.8 23.0 4,921 5,083 0.0 0.0 0.0 0 2.36 0.00 40 10.2 0.0 0.0
10/14/20 89.5 53.8 0.00 19.0 21.7 4,902 5,060 0.0 0.0 -14.5 0 3.07 0.00 50 10.3 0.0 0.0
10/13/20 89.7 53.4 0.00 18.8 21.6 4,883 5,039 0.0 0.0 0.0 0 2.82 0.00 60 10.2 0.0 0.0
10/12/20 87.3 53.4 0.00 17.2 20.4 4,864 5,017 0.0 0.0 0.0 0 4.60 0.00 70 10.5 0.0 0.0
10/11/20 82.9 52.9 0.00 15.5 17.9 4,847 4,997 0.0 0.0 0.0 0 8.28 0.00 80 10.2 0.0 0.0
10/10/20 83.3 51.6 0.00 15.6 17.4 4,831 4,979 0.0 0.0 0.0 0 8.10 0.00 60 10.1 0.0 0.0
10/9/20 81.7 52.0 0.00 14.2 16.8 4,816 4,961 0.0 0.0 0.0 0 7.72 0.00 40 9.9 0.0 0.0
10/8/20 86.0 56.3 0.00 18.2 21.2 4,801 4,945 0.0 0.0 0.0 0 8.76 0.00 20 10.9 0.0 0.0
10/7/20 92.2 53.9 0.00 20.4 23.1 4,783 4,923 0.0 0.0 -15.5 0 2.36 0.00 0 10.6 0.0 0.0
10/6/20 90.8 54.6 0.00 19.9 22.7 4,763 4,900 0.0 0.0 -14.5 0 3.44 0.00 0 10.8 0.0 0.0
10/5/20 95.2 57.3 0.00 21.7 26.2 4,743 4,878 0.0 0.0 0.0 0 2.36 0.05 0 11.0 0.0 0.0
10/4/20 96.2 57.0 0.00 24.4 26.6 4,721 4,851 0.0 0.0 -16.0 0 3.94 1.41 0 11.1 0.0 0.0
10/3/20 96.2 57.2 0.00 24.0 26.7 4,697 4,825 0.0 0.0 -16.5 0 3.10 0.74 0 11.1 0.0 0.0
10/2/20 97.0 56.5 0.00 24.0 26.7 4,673 4,798 0.0 0.0 -15.5 0 2.56 2.59 0 11.1 0.0 0.0
10/1/20 98.4 57.7 0.00 24.0 28.1 4,649 4,771 0.0 0.0 -15.5 0 2.42 2.38 0 11.2 0.0 0.0
9/30/20 95.8 57.7 0.00 23.8 26.7 4,625 4,743 0.0 0.0 -16.5 0 5.55 0.38 0 11.2 0.0 0.0
9/29/20 101.7 58.2 0.00 27.8 29.9 4,601 4,717 0.0 0.0 -17.0 0 5.55 4.15 0 11.2 0.0 0.0
9/28/20 95.9 59.1 0.00 24.3 27.5 4,573 4,687 0.0 0.0 -17.5 0 2.70 0.22 0 11.3 0.0 0.0
9/27/20 90.8 58.8 0.00 23.2 24.8 4,549 4,659 0.0 0.0 -16.5 0 3.30 0.00 0 11.3 0.0 0.0
9/26/20 89.6 57.3 0.00 22.1 23.4 4,526 4,634 0.0 0.0 -16.5 0 4.28 0.00 0 11.4 0.0 0.0
9/25/20 88.9 55.3 0.00 20.0 22.1 4,503 4,611 0.0 0.0 -15.0 0 4.49 0.00 10 11.4 0.0 0.0
9/24/20 90.3 53.8 0.00 19.4 22.0 4,484 4,589 0.0 0.0 -15.0 0 2.96 0.00 20 11.2 0.0 0.0
9/23/20 86.6 55.0 0.00 19.0 20.8 4,464 4,567 0.0 0.0 0.0 0 4.16 0.00 30 11.5 0.0 0.0
9/22/20 95.1 56.5 0.00 23.2 25.8 4,445 4,546 0.0 0.0 -15.5 0 2.30 0.00 40 11.5 0.0 0.0
9/21/20 97.3 56.4 0.00 23.6 26.8 4,422 4,520 0.0 0.0 -16.0 0 2.30 1.46 50 11.6 0.0 0.0
Max 101.7 59.1 0.00 27.8 29.9 - - 0.0 0.0 0.0 0 8.76 4.15 80 11.6 0.0 0.0
Avg - - - 20.6 23.5 - - 0.0 0.0 -8.4 0 3.82 0.46 - 10.7 0.0 0.0
Min 81.7 50.8 0.00 14.2 16.8 - - 0.0 0.0 -17.5 0 1.86 0.00 0 9.7 0.0 0.0
Total - - - 619.2 704.2 - - 0.0 0.0 -253.5 - 114.59 13.74 - 322.5 0.0 0.0